Theta_e
326 324 324 322 323 322 316 313 312 311 311 311 309 307 306 304 303 300 300 297 295 295 295 295 298 300 301 298 300 307 307 307 307 307 306 306 306 308 309 308 306 308 309 308 308 306 306
327 327 325 324 324 323 323 319 315 313 312 312 311 308 307 305 303 300 300 297 295 294 294 296 299 300 305 298 300 305 307 306 306 306 305 306 307 306 307 305 306 306 306 307 307 308 308
326 325 325 325 324 324 324 323 321 317 314 313 312 310 307 305 304 300 299 296 295 295 295 298 300 303 306 300 303 305 308 307 306 306 305 305 306 308 307 308 307 307 308 306 307 307 308
319 325 325 325 325 325 324 322 321 319 317 314 313 311 308 306 304 300 299 296 294 296 298 302 302 307 309 302 309 308 308 306 305 305 305 305 305 306 306 307 307 307 305 307 307 306 307
317 318 324 324 324 325 325 324 323 320 318 316 314 312 308 306 303 300 298 294 296 302 301 301 308 309 310 308 307 305 305 306 305 305 305 305 304 305 306 307 307 305 307 305 306 306 306
318 318 318 324 323 323 324 323 324 322 318 316 314 313 309 306 303 300 296 295 302 303 303 305 308 305 304 305 304 304 304 303 304 304 303 305 305 305 305 307 307 307 304 304 304 306 305
316 318 319 320 322 323 323 324 323 322 320 316 314 313 309 304 301 299 294 300 300 302 306 302 305 302 307 306 303 303 302 301 300 301 301 300 306 306 301 302 304 303 303 303 303 303 305
313 315 316 318 319 322 322 323 322 321 318 315 314 311 308 303 300 296 294 300 300 300 300 300 306 307 306 306 303 300 301 301 301 300 299 300 300 300 299 299 299 299 301 302 303 304 304
308 309 314 315 316 317 320 320 320 320 318 315 313 310 307 302 299 293 298 300 301 300 298 298 302 304 305 303 301 300 300 299 299 299 299 300 300 300 299 300 301 300 300 301 301 303 303
306 307 308 310 314 316 316 318 319 318 316 313 311 309 305 301 297 298 300 300 301 301 297 299 304 303 302 301 300 299 299 300 300 300 299 299 299 299 300 300 300 301 300 299 300 301 301
304 305 307 307 306 313 316 316 318 317 315 312 310 308 304 300 299 301 301 300 302 302 305 304 303 303 299 300 300 300 299 301 300 300 300 300 299 299 300 300 300 301 300 299 300 301 302
303 304 305 304 306 306 312 316 315 316 315 311 310 306 303 294 298 301 301 301 303 300 299 305 301 300 300 299 299 300 300 300 299 300 299 298 298 299 299 299 299 299 299 299 303 304 302
302 303 302 303 305 306 306 313 316 315 313 310 308 304 301 295 298 300 301 302 302 300 302 301 301 300 300 300 300 300 300 300 300 300 300 299 299 299 299 299 299 299 301 298 299 303 301
300 302 302 303 305 306 305 309 315 316 312 308 305 302 299 294 300 301 302 305 300 299 303 299 299 300 300 300 300 299 298 300 300 298 299 299 300 299 299 299 299 299 299 299 299 299 299
300 301 301 303 305 305 305 306 313 313 308 307 302 298 295 295 301 302 303 300 301 301 300 299 299 300 300 299 299 300 300 301 301 300 300 300 299 299 299 299 298 299 299 300 301 301 300
300 301 301 302 303 303 305 305 311 306 305 302 297 295 296 298 301 301 303 298 299 299 298 299 300 300 300 299 299 299 301 301 301 300 300 300 297 299 299 299 300 301 301 303 302 300 299
301 301 302 302 302 303 304 305 309 305 305 299 296 296 298 300 301 302 302 299 299 298 298 299 299 299 299 299 298 299 301 301 300 300 300 300 299 298 300 299 299 302 303 304 304 303 302
301 301 302 302 302 303 304 306 304 302 300 299 299 300 297 301 302 302 302 301 299 298 299 299 299 298 299 298 299 300 301 302 300 299 300 301 301 299 299 299 299 301 303 303 304 304 306
302 301 300 301 302 302 303 306 301 301 300 298 299 298 298 300 302 302 301 299 299 299 299 298 298 299 300 300 300 301 301 299 298 298 300 301 301 299 300 300 301 302 302 303 304 305 305
301 301 301 300 301 302 303 304 301 301 300 299 298 301 299 300 300 301 300 299 298 298 298 299 299 300 300 300 300 300 300 300 298 298 302 302 301 300 298 298 300 301 302 302 303 305 303
300 300 301 301 302 303 303 302 301 300 300 299 298 300 299 301 301 300 300 300 299 298 299 300 300 300 300 300 300 300 299 298 299 304 302 302 302 302 302 301 302 302 302 302 303 303 306
299 302 302 303 303 304 304 301 302 299 299 299 299 299 298 298 299 300 301 299 299 299 301 300 301 300 299 300 301 300 298 299 300 300 300 301 302 302 302 302 302 303 302 300 302 305 303
308 309 308 307 305 305 303 300 299 299 298 299 297 297 300 298 301 300 300 300 300 301 299 300 300 300 300 299 298 298 297 298 299 300 302 301 302 303 302 302 303 303 301 300 300 301 301
310 310 308 306 305 302 300 299 299 298 299 299 298 297 300 300 301 300 300 300 300 299 300 299 299 299 298 296 298 298 297 297 298 298 300 301 303 303 303 303 303 301 299 299 300 300 299
308 307 306 304 302 301 300 299 298 299 300 299 298 298 299 300 299 300 300 299 300 300 299 299 297 297 297 298 301 302 301 302 302 300 299 301 302 303 303 303 302 301 300 299 299 300 298
303 303 302 301 300 299 298 298 298 299 299 300 300 298 299 301 299 299 299 299 298 299 299 298 296 295 297 299 301 302 303 302 303 300 298 299 299 301 302 302 303 302 299 298 298 301 298
300 300 300 299 298 298 298 298 299 299 299 300 299 297 296 298 297 298 298 298 298 298 298 298 297 297 296 298 301 301 301 300 302 298 298 299 298 300 300 299 299 298 298 298 302 301 298
298 298 298 298 297 297 296 297 297 297 299 300 296 296 297 297 296 296 296 296 296 297 299 297 298 296 296 298 299 300 301 300 300 298 297 299 299 300 296 297 300 297 298 300 298 297 298
296 296 296 296 296 296 296 296 298 299 300 297 296 296 297 296 296 294 294 295 296 296 295 294 296 294 294 295 294 297 300 298 298 299 296 300 298 301 300 300 296 298 296 295 295 296 295
Wind_Speed
35 33 31 29 26 24 24 24 20 21 19 17 14 14 13 12 13 14 15 12 12 14 15 16 18 16 6 2 6 4 1 2 1 2 3 3 2 3 2 2 3 4 4 3 5 11 9
37 36 37 34 31 27 26 24 23 21 22 18 16 15 14 13 13 14 15 13 12 14 15 15 16 12 2 3 3 5 2 2 3 2 3 3 4 4 2 2 2 1 5 11 8 12 11
42 39 38 39 36 32 31 26 25 22 23 19 17 17 15 14 14 14 15 14 13 13 14 14 10 6 3 10 3 4 5 4 3 3 2 2 3 3 5 2 0 3 6 7 7 5 5
29 41 36 38 41 36 34 29 28 24 23 22 19 17 15 14 14 15 16 13 14 14 12 9 2 1 6 3 5 6 4 4 2 4 4 2 2 2 1 0 3 3 1 3 3 7 2
24 28 36 39 38 35 33 31 30 27 26 25 22 18 15 14 13 15 18 11 13 10 4 2 3 2 7 6 3 1 2 1 0 2 2 4 3 2 2 2 3 4 4 7 7 7 4
20 25 27 37 39 39 33 33 33 29 30 28 26 19 15 14 11 14 13 13 6 1 1 2 2 1 4 1 3 4 0 2 4 5 3 4 4 2 2 1 2 3 5 4 9 6 13
20 21 22 28 40 37 35 36 30 34 30 31 28 19 13 11 8 10 10 2 2 1 1 5 4 2 2 11 1 1 2 3 3 6 2 3 3 0 1 2 2 3 4 8 8 7 12
24 24 21 20 23 39 36 36 33 30 30 31 27 17 11 9 6 8 4 3 2 1 4 7 6 5 5 3 3 3 2 3 3 2 1 3 3 1 2 3 1 2 4 6 9 11 11
21 23 28 24 22 23 31 34 32 30 31 28 28 19 15 9 4 6 4 3 1 2 1 4 5 4 5 6 2 2 3 3 4 3 3 2 2 3 1 5 3 5 3 3 6 11 7
24 22 22 26 26 23 25 28 31 27 33 31 28 23 17 11 4 3 3 4 1 2 2 3 4 3 5 6 3 3 6 3 4 3 3 4 3 4 5 4 4 2 6 5 9 12 7
24 25 25 24 25 28 25 26 29 30 30 32 30 24 20 17 8 6 4 5 3 0 3 4 1 4 3 5 6 3 10 5 3 3 2 3 2 4 5 2 1 1 6 9 9 11 6
24 24 25 26 25 25 26 27 25 29 32 34 31 26 22 19 6 10 8 5 3 3 6 3 4 4 5 3 3 4 5 7 2 4 4 3 2 3 1 1 2 9 5 6 1 2 4
28 27 27 25 26 25 23 28 31 33 38 36 32 28 26 21 8 16 12 3 3 4 2 5 4 4 6 2 5 3 4 5 2 3 2 3 1 1 2 3 2 7 6 4 2 1 3
28 29 28 24 27 25 22 24 36 39 40 40 33 26 24 18 13 20 11 1 6 4 4 3 5 6 5 2 3 2 4 3 7 4 2 1 2 1 4 3 3 4 3 1 4 3 9
31 31 29 27 26 26 25 22 39 46 47 38 33 21 15 20 18 21 4 3 8 6 5 8 4 4 3 2 5 4 3 3 2 1 3 3 1 2 4 2 1 1 2 3 3 4 6
34 34 32 30 30 28 25 21 42 51 51 46 24 13 5 18 22 8 2 6 3 2 3 3 5 3 5 6 4 3 4 2 3 0 1 3 1 1 2 3 4 1 1 1 2 3 4
36 36 35 33 33 28 28 22 50 56 50 42 19 5 9 19 14 3 7 6 3 2 2 2 4 5 4 5 4 3 6 3 4 3 2 3 2 2 1 3 3 3 2 2 2 3 3
40 37 35 36 34 32 27 25 57 59 55 28 8 4 17 19 5 2 8 5 4 4 2 3 4 5 5 4 4 3 5 4 4 5 5 3 3 2 2 3 5 3 4 2 2 2 3
42 41 40 40 36 34 31 42 57 63 56 22 3 4 9 10 6 8 4 4 2 4 3 3 3 3 2 5 5 5 5 6 4 6 6 6 2 1 4 2 2 4 4 3 3 4 9
42 44 42 42 43 40 37 55 60 64 44 18 3 5 3 3 1 7 7 5 5 2 2 4 5 5 5 3 4 6 5 3 1 3 8 2 3 3 4 2 2 4 5 5 5 5 7
52 52 51 47 47 46 42 63 68 63 44 16 3 3 6 9 10 5 6 8 7 5 2 2 3 3 6 5 4 5 4 4 2 5 3 2 3 3 7 12 11 13 10 7 7 9 7
61 59 56 52 52 52 59 67 69 61 41 7 5 5 3 8 12 6 6 7 10 5 5 4 8 9 4 5 5 9 8 4 3 2 2 2 3 1 3 2 2 4 6 3 5 7 8
43 39 43 51 58 56 70 68 66 56 38 5 4 4 7 15 12 10 7 7 7 8 4 6 12 6 6 6 4 7 4 6 6 5 3 3 2 0 2 4 3 3 4 1 4 2 2
35 39 47 57 66 70 68 67 60 53 34 7 7 6 4 7 11 9 9 5 14 5 7 9 8 6 3 11 9 10 8 6 4 3 4 6 3 1 2 5 1 3 3 3 3 4 2
40 52 60 65 67 66 64 62 55 42 27 15 11 6 3 7 9 5 14 9 9 10 9 9 3 3 9 4 4 6 1 3 3 3 4 1 2 1 1 2 2 3 1 3 2 1 2
56 58 61 62 61 60 61 54 46 36 20 17 11 9 4 9 4 10 10 17 14 9 4 4 5 4 4 2 2 4 4 4 5 4 5 6 4 1 1 2 3 3 1 4 2 4 6
54 53 53 53 54 55 51 48 47 29 17 15 7 8 8 4 2 8 4 9 6 5 5 4 5 3 2 2 2 2 3 3 6 6 4 3 2 3 3 3 5 1 6 4 3 2 7
51 51 50 51 48 48 45 46 41 26 18 10 8 7 6 3 3 3 4 5 4 3 8 6 4 1 2 3 2 2 2 3 3 4 4 5 5 3 3 2 3 1 2 2 2 3 4
47 46 46 44 43 41 40 41 33 26 19 15 8 16 19 6 5 15 21 10 5 8 7 2 3 3 3 4 1 3 2 2 3 4 1 2 4 4 5 2 3 1 1 1 2 2 3
Wind_Direction
251 251 253 251 251 251 251 250 250 252 253 256 263 273 282 300 310 314 319 324 328 328 331 331 334 339 347 345 250 150 100 253 291 112 101 120 106 130 186 246 304 225 275 296 272 292 273
252 252 252 248 250 250 253 252 250 250 254 255 261 268 279 295 302 310 315 318 323 326 328 328 331 337 324 267 180 197 351 220 198 160 145 156 158 173 171 205 202 343 290 292 285 272 270
254 252 254 255 251 251 252 250 253 247 249 251 256 263 277 286 300 306 309 313 318 320 320 317 319 341 295 245 189 232 290 216 225 211 154 233 169 167 158 236 340 281 297 306 278 303 289
251 249 254 254 255 251 250 250 250 247 250 248 246 256 266 281 296 304 309 312 313 312 315 307 302 53 255 265 285 283 212 256 264 214 217 189 190 77 194 347 13 315 58 331 341 340 344
260 250 248 258 251 252 250 246 246 248 247 246 243 245 257 272 290 304 307 310 313 319 328 159 122 87 273 301 272 318 251 194 308 163 148 108 74 61 40 58 336 21 306 314 316 317 298
259 260 253 244 252 250 249 250 245 245 243 241 240 239 244 260 279 299 309 312 297 278 77 117 77 315 275 330 329 323 75 90 91 107 79 62 56 56 43 107 263 305 308 289 294 299 315
263 257 258 256 249 247 250 245 248 248 242 235 237 229 232 257 282 297 315 294 277 264 141 219 168 225 296 322 354 123 55 94 49 50 100 45 104 188 303 239 264 279 259 283 296 302 321
250 251 256 259 255 250 248 248 247 251 246 230 230 218 217 246 266 279 303 269 236 291 309 226 251 280 272 272 328 341 77 98 67 94 39 52 123 134 277 53 252 204 310 326 307 329 333
275 267 251 250 257 251 247 243 251 243 243 227 220 205 200 204 271 274 207 246 179 332 306 282 179 207 212 164 176 315 37 88 103 95 55 82 97 337 78 57 58 99 47 327 307 314 279
264 268 271 257 249 252 250 250 243 249 230 216 208 193 191 182 128 202 186 215 143 136 325 243 207 245 153 151 80 14 20 97 40 123 107 81 3 4 57 59 8 316 0 317 314 331 321
262 258 263 268 260 247 246 244 245 228 219 204 200 191 184 165 157 162 119 169 129 35 280 135 174 141 140 134 144 55 41 40 90 111 118 108 48 85 68 338 326 343 311 310 292 284 297
267 262 264 263 261 257 247 243 232 216 214 206 199 185 174 163 191 139 135 127 47 84 251 167 136 165 92 33 56 100 46 38 71 84 44 50 22 54 35 67 101 323 292 279 104 253 255
266 265 271 265 258 256 251 246 230 210 200 198 192 181 176 162 171 162 156 127 110 199 111 171 159 131 102 81 64 59 70 43 82 142 43 22 31 279 23 28 45 9 359 339 301 225 279
266 265 272 262 253 256 254 239 222 207 196 190 179 172 171 157 169 160 145 145 173 203 173 110 102 94 105 94 51 101 103 104 40 61 107 190 184 51 6 60 355 352 29 112 282 283 297
268 263 267 260 254 256 255 241 211 198 180 175 158 154 167 167 166 165 155 184 194 194 167 140 103 100 93 106 129 123 79 113 112 76 168 165 221 307 105 92 235 52 48 17 297 288 277
264 260 257 256 254 252 251 237 200 171 170 162 136 129 160 184 161 164 164 221 207 223 126 183 138 132 151 171 130 119 140 153 120 348 272 156 158 336 3 83 37 20 84 202 125 267 267
258 255 255 249 245 246 247 248 184 172 171 152 116 100 163 165 147 128 198 223 196 221 156 135 127 120 143 155 130 128 139 121 163 149 132 127 202 139 256 169 174 156 164 109 297 236 264
257 252 250 246 240 236 236 218 165 162 154 146 119 106 177 150 149 180 212 196 164 162 112 106 95 106 141 143 114 126 145 143 175 159 164 152 140 220 216 300 230 200 172 154 211 259 268
253 248 245 244 236 228 223 193 164 162 155 131 98 110 173 168 168 186 232 190 146 154 151 119 113 116 124 129 113 124 122 139 124 164 171 166 149 154 112 129 115 201 169 180 224 220 242
253 247 243 238 232 223 217 180 171 164 159 134 129 121 126 214 215 169 183 166 131 60 83 103 110 101 115 97 51 144 128 153 149 161 125 140 154 221 206 100 138 246 212 260 244 255 287
256 249 242 232 224 213 211 172 171 164 155 116 150 165 168 178 207 184 175 160 146 145 98 130 94 161 144 130 119 138 129 118 66 129 92 149 182 227 268 272 268 268 262 242 233 258 267
261 250 235 223 210 197 184 169 169 163 157 94 164 137 111 167 157 173 184 193 163 123 144 166 155 148 127 152 183 168 131 169 167 102 128 50 177 210 274 227 226 227 186 280 261 263 266
243 222 214 201 188 182 168 166 164 158 147 139 183 106 133 164 164 178 178 158 155 129 32 154 135 113 121 140 120 117 103 109 137 146 117 130 170 259 240 325 332 220 174 304 288 217 269
209 192 182 172 165 159 161 163 160 161 161 183 154 129 109 162 174 173 148 139 152 151 131 138 119 110 122 117 105 72 70 99 112 105 134 150 162 189 313 335 264 103 113 299 255 241 340
166 156 152 150 153 157 159 158 159 160 167 175 139 134 124 138 152 125 129 126 111 106 105 115 69 107 143 99 90 111 83 122 118 98 179 121 135 126 342 306 299 150 316 336 349 118 15
132 135 140 145 149 151 153 155 158 156 153 144 124 127 110 124 200 143 137 146 134 127 88 85 51 96 78 87 100 149 170 154 155 117 65 103 68 133 157 243 261 121 1 330 228 235 8
122 126 132 138 139 142 149 154 154 150 162 152 123 122 95 101 5 133 134 141 128 116 104 127 159 101 41 91 109 139 138 154 161 166 168 119 83 189 155 237 283 268 318 304 260 24 341
116 120 124 127 134 140 145 151 162 177 153 148 114 137 104 93 52 48 120 131 98 124 146 159 114 44 83 92 141 157 137 159 127 134 169 170 162 169 129 193 276 201 254 285 20 334 338
119 123 125 128 133 142 153 163 166 162 165 142 91 105 102 80 104 84 70 73 138 148 127 61 123 133 141 103 162 130 130 132 141 179 144 188 199 174 198 220 124 123 184 207 284 317 334